This is the latest recevied weather packets stored in our database for station/object SR9NLI. If no packets are shown the sender has not sent any weather packets the latest 1 day(s).
| Time | Temp. | Humidity | Pressure | Rain* | Wind** | Luminosity | Snow |
|---|---|---|---|---|---|---|---|
| 1778023859 | 15° C | 100% | 948.6 hPa | - | 1.79 m/s, 54° | - | - |
| 1778023736 | 15° C | 100% | 948.5 hPa | - | 1.79 m/s, 95° | - | - |
| 1778023675 | 15.56° C | 100% | 948.6 hPa | - | 1.79 m/s, 122° | - | - |
| 1778023612 | 15.56° C | 100% | 948.6 hPa | - | 1.34 m/s, 137° | - | - |
| 1778023489 | 16.11° C | 100% | 948.7 hPa | - | 1.79 m/s, 147° | - | - |
| 1778023366 | 16.11° C | 100% | 948.6 hPa | - | 1.79 m/s, 163° | - | - |
| 1778023305 | 15.56° C | 100% | 948.5 hPa | - | 1.79 m/s, 177° | - | - |
| 1778023243 | 15.56° C | 100% | 948.8 hPa | - | 1.79 m/s, 164° | - | - |
| 1778023119 | 15.56° C | 100% | 948.6 hPa | - | 1.79 m/s, 149° | - | - |
| 1778022996 | 14.44° C | 100% | 948.6 hPa | - | 1.34 m/s, 235° | - | - |
| 1778022935 | 13.89° C | 100% | 948.7 hPa | - | 1.34 m/s, 270° | - | - |
| 1778022873 | 13.89° C | 100% | 948.7 hPa | - | 1.79 m/s, 324° | - | - |
| 1778022749 | 13.89° C | 100% | 948.5 hPa | - | 1.79 m/s, 355° | - | - |
| 1778022626 | 13.89° C | 100% | 948.6 hPa | - | 1.79 m/s, 352° | - | - |
| 1778022565 | 13.89° C | 100% | 948.7 hPa | - | 2.68 m/s, 346° | - | - |
| 1778022503 | 14.44° C | 100% | 948.6 hPa | - | 2.68 m/s, 344° | - | - |
| 1778022380 | 14.44° C | 100% | 948.5 hPa | - | 2.24 m/s, 328° | - | - |
| 1778022262 | 15° C | 100% | 948.5 hPa | - | 1.79 m/s, 286° | - | - |
| 1778022195 | 15° C | 100% | 948.5 hPa | - | 2.24 m/s, 192° | - | - |
| 1778022133 | 15.56° C | 100% | 948.6 hPa | - | 2.68 m/s, 181° | - | - |
| 1778022011 | 16.67° C | 100% | 948.4 hPa | - | 2.24 m/s, 176° | - | - |
| 1778021887 | 16.11° C | 100% | 948.5 hPa | - | 1.79 m/s, 217° | - | - |
| 1778021826 | 16.11° C | 100% | 948.4 hPa | - | 2.24 m/s, 246° | - | - |
| 1778021764 | 15.56° C | 100% | 948.4 hPa | - | 2.24 m/s, 258° | - | - |
| 1778021640 | 15.56° C | 100% | 948.5 hPa | - | 2.24 m/s, 262° | - | - |
* Rain since midnight (hover to see other rain measurements)
** Current wind speed in m/s (hover to see current wind gust speed)